• In Germany
  • List of Countries
  • For 7 days
  • Water Temperature
  • Satellite Maps
  • Weather Map
  • Weather Widgets
  • user-avatar
    Login

    Hourly Weather Syanky

    Today, 23 July, Monday

    Time Temperature Precipitation Wind Pressure Humidity
    00:00 +15°C° 0.1 mm 1 mps 687 mmHg 90%
    01:00 +14°C° 0.1 mm 1 mps 687 mmHg 91%
    02:00 +14°C° 0 mm 1 mps 686 mmHg 91%
    03:00 +14°C° 0.1 mm 1 mps 686 mmHg 92%
    04:00 +14°C° 0.1 mm 1 mps 686 mmHg 92%
    05:00 +14°C° 0.1 mm 1 mps 686 mmHg 93%
    06:00 +15°C° 0.1 mm 1 mps 687 mmHg 90%
    07:00 +17°C° 0.1 mm 2 mps 687 mmHg 87%
    08:00 +18°C° 0.1 mm 2 mps 687 mmHg 84%
    09:00 +19°C° 0.4 mm 3 mps 687 mmHg 78%
    10:00 +21°C° 0.4 mm 3 mps 688 mmHg 73%
    11:00 +22°C° 0.4 mm 4 mps 688 mmHg 67%
    12:00 +22°C° 0.2 mm 4 mps 688 mmHg 65%
    13:00 +22°C° 0.2 mm 4 mps 687 mmHg 63%
    14:00 +22°C° 0.2 mm 4 mps 687 mmHg 62%
    15:00 +22°C° 0.2 mm 4 mps 687 mmHg 65%
    16:00 +21°C° 0.2 mm 4 mps 687 mmHg 68%
    17:00 +21°C° 0.2 mm 5 mps 687 mmHg 71%
    18:00 +20°C° 0.3 mm 4 mps 687 mmHg 76%
    19:00 +18°C° 0.3 mm 4 mps 687 mmHg 82%
    20:00 +17°C° 0.3 mm 3 mps 686 mmHg 87%
    21:00 +17°C° 0.2 mm 3 mps 686 mmHg 89%
    22:00 +16°C° 0.2 mm 3 mps 686 mmHg 91%
    23:00 +16°C° 0.2 mm 3 mps 686 mmHg 93%

    Tomorrow, 24 July, Tuesday

    Time Temperature Precipitation Wind Pressure Humidity
    00:00 +16°C° 0.4 mm 3 mps 686 mmHg 93%
    01:00 +16°C° 0.4 mm 3 mps 686 mmHg 94%
    02:00 +16°C° 0.4 mm 3 mps 686 mmHg 95%
    03:00 +16°C° 0.5 mm 3 mps 686 mmHg 96%
    04:00 +16°C° 0.5 mm 3 mps 686 mmHg 96%
    05:00 +16°C° 0.5 mm 3 mps 687 mmHg 97%
    06:00 +16°C° 0.3 mm 3 mps 687 mmHg 96%
    07:00 +16°C° 0.3 mm 3 mps 687 mmHg 95%
    08:00 +16°C° 0.3 mm 3 mps 687 mmHg 95%
    09:00 +17°C° 0.1 mm 3 mps 687 mmHg 93%
    10:00 +17°C° 0.1 mm 3 mps 687 mmHg 91%
    11:00 +17°C° 0.1 mm 3 mps 688 mmHg 89%
    12:00 +18°C° 0.1 mm 3 mps 687 mmHg 86%
    13:00 +19°C° 0.1 mm 3 mps 687 mmHg 84%
    14:00 +19°C° 0.1 mm 3 mps 687 mmHg 82%
    15:00 +20°C° 0.3 mm 3 mps 687 mmHg 82%
    16:00 +20°C° 0.3 mm 3 mps 687 mmHg 82%
    17:00 +20°C° 0.3 mm 3 mps 687 mmHg 82%
    18:00 +19°C° 0.3 mm 3 mps 687 mmHg 85%
    19:00 +18°C° 0.3 mm 3 mps 687 mmHg 88%
    20:00 +17°C° 0.3 mm 2 mps 687 mmHg 91%
    21:00 +17°C° 0.1 mm 2 mps 687 mmHg 92%
    22:00 +16°C° 0.1 mm 2 mps 687 mmHg 94%
    23:00 +16°C° 0.1 mm 2 mps 687 mmHg 95%

    Day after tomorrow, 25 July, Wednesday

    Time Temperature Precipitation Wind Pressure Humidity
    00:00 +16°C° 0 mm 2 mps 687 mmHg 96%
    01:00 +15°C° 0 mm 2 mps 687 mmHg 96%
    02:00 +15°C° 0 mm 2 mps 687 mmHg 97%
    03:00 +15°C° 0 mm 2 mps 687 mmHg 97%
    04:00 +15°C° 0 mm 2 mps 687 mmHg 97%
    05:00 +15°C° 0 mm 2 mps 687 mmHg 97%
    06:00 +16°C° 0.1 mm 2 mps 688 mmHg 95%
    07:00 +16°C° 0.1 mm 2 mps 688 mmHg 93%
    08:00 +17°C° 0.1 mm 2 mps 688 mmHg 91%
    09:00 +18°C° 0.1 mm 2 mps 688 mmHg 90%
    10:00 +18°C° 0.1 mm 2 mps 688 mmHg 88%
    11:00 +18°C° 0.1 mm 2 mps 688 mmHg 86%
    12:00 +19°C° 0.2 mm 3 mps 688 mmHg 83%
    13:00 +20°C° 0.2 mm 3 mps 688 mmHg 79%
    14:00 +21°C° 0.2 mm 3 mps 688 mmHg 76%
    15:00 +21°C° 0.4 mm 3 mps 688 mmHg 74%
    16:00 +22°C° 0.4 mm 3 mps 688 mmHg 73%
    17:00 +22°C° 0.4 mm 3 mps 688 mmHg 72%
    18:00 +21°C° 0.1 mm 3 mps 688 mmHg 78%
    19:00 +19°C° 0.1 mm 2 mps 688 mmHg 84%
    20:00 +18°C° 0.1 mm 2 mps 688 mmHg 91%
    21:00 +17°C° 0 mm 2 mps 688 mmHg 92%
    22:00 +16°C° 0 mm 2 mps 688 mmHg 94%
    23:00 +15°C° 0 mm 1 mps 688 mmHg 96%

    26 July, Thursday

    Time Temperature Precipitation Wind Pressure Humidity
    00:00 +15°C° 0 mm 1 mps 688 mmHg 96%
    01:00 +15°C° 0 mm 1 mps 688 mmHg 97%
    02:00 +15°C° 0 mm 1 mps 688 mmHg 97%
    03:00 +15°C° 0 mm 1 mps 688 mmHg 97%
    04:00 +15°C° 0 mm 1 mps 688 mmHg 97%
    05:00 +15°C° 0 mm 1 mps 688 mmHg 97%
    06:00 +16°C° 0 mm 1 mps 688 mmHg 94%
    07:00 +18°C° 0 mm 1 mps 689 mmHg 91%
    08:00 +19°C° 0 mm 1 mps 689 mmHg 87%
    09:00 +20°C° 0 mm 1 mps 689 mmHg 83%
    10:00 +21°C° 0 mm 1 mps 689 mmHg 79%
    11:00 +22°C° 0 mm 1 mps 689 mmHg 75%
    12:00 +23°C° 0.1 mm 1 mps 689 mmHg 71%
    13:00 +24°C° 0.1 mm 2 mps 689 mmHg 67%
    14:00 +25°C° 0.1 mm 2 mps 689 mmHg 63%
    15:00 +25°C° 0.1 mm 2 mps 689 mmHg 65%
    16:00 +25°C° 0.1 mm 2 mps 689 mmHg 66%
    17:00 +25°C° 0.1 mm 2 mps 689 mmHg 68%
    18:00 +23°C° 0.2 mm 2 mps 689 mmHg 75%
    19:00 +22°C° 0.2 mm 1 mps 689 mmHg 82%
    20:00 +20°C° 0.2 mm 1 mps 689 mmHg 90%
    21:00 +20°C° 0.4 mm 1 mps 689 mmHg 91%
    22:00 +19°C° 0.4 mm 1 mps 689 mmHg 92%
    23:00 +18°C° 0.4 mm 1 mps 689 mmHg 93%

    27 July, Friday

    Time Temperature Precipitation Wind Pressure Humidity
    00:00 +18°C° 0.1 mm 1 mps 689 mmHg 94%
    01:00 +18°C° 0.1 mm 1 mps 689 mmHg 94%
    02:00 +16°C° 0.1 mm 1 mps 689 mmHg 94%
    03:00 +16°C° 0 mm 1 mps 689 mmHg 94%
    04:00 +16°C° 0 mm 1 mps 689 mmHg 94%
    05:00 +16°C° 0 mm 1 mps 689 mmHg 95%
    06:00 +18°C° 0 mm 1 mps 689 mmHg 91%
    07:00 +20°C° 0 mm 1 mps 689 mmHg 88%
    08:00 +21°C° 0 mm 1 mps 690 mmHg 84%
    09:00 +23°C° 0.6 mm 1 mps 690 mmHg 81%
    10:00 +24°C° 0.6 mm 1 mps 690 mmHg 77%
    11:00 +25°C° 0.6 mm 2 mps 690 mmHg 73%
    12:00 +26°C° 0.2 mm 2 mps 690 mmHg 69%
    13:00 +27°C° 0.2 mm 2 mps 690 mmHg 65%
    14:00 +27°C° 0.2 mm 2 mps 690 mmHg 61%
    15:00 +27°C° 0.4 mm 2 mps 690 mmHg 64%
    16:00 +26°C° 0.4 mm 3 mps 690 mmHg 67%
    17:00 +26°C° 0.4 mm 3 mps 690 mmHg 70%
    18:00 +24°C° 0.4 mm 2 mps 689 mmHg 77%
    19:00 +23°C° 0.4 mm 2 mps 689 mmHg 83%
    20:00 +20°C° 0.4 mm 2 mps 689 mmHg 89%
    21:00 +19°C° 0.1 mm 2 mps 689 mmHg 91%
    22:00 +19°C° 0.1 mm 2 mps 689 mmHg 92%
    23:00 +19°C° 0.1 mm 1 mps 689 mmHg 94%

    28 July, Saturday

    Time Temperature Precipitation Wind Pressure Humidity
    00:00 +18°C° 0 mm 1 mps 688 mmHg 94%
    01:00 +18°C° 0 mm 1 mps 688 mmHg 95%
    02:00 +18°C° 0 mm 1 mps 688 mmHg 95%
    03:00 +16°C° 0.1 mm 1 mps 688 mmHg 95%
    04:00 +16°C° 0.1 mm 1 mps 688 mmHg 95%
    05:00 +16°C° 0.1 mm 1 mps 688 mmHg 95%
    06:00 +18°C° 0 mm 1 mps 688 mmHg 92%
    07:00 +20°C° 0 mm 1 mps 688 mmHg 88%
    08:00 +21°C° 0 mm 1 mps 689 mmHg 84%
    09:00 +23°C° 0 mm 1 mps 689 mmHg 76%
    10:00 +25°C° 0 mm 1 mps 689 mmHg 68%
    11:00 +27°C° 0 mm 1 mps 689 mmHg 60%
    12:00 +27°C° 0 mm 2 mps 689 mmHg 58%
    13:00 +28°C° 0 mm 2 mps 689 mmHg 57%
    14:00 +28°C° 0 mm 2 mps 689 mmHg 55%
    15:00 +27°C° 0.5 mm 2 mps 689 mmHg 60%
    16:00 +27°C° 0.5 mm 2 mps 689 mmHg 65%
    17:00 +26°C° 0.5 mm 2 mps 689 mmHg 70%
    18:00 +25°C° 0.2 mm 2 mps 688 mmHg 76%
    19:00 +23°C° 0.2 mm 2 mps 688 mmHg 81%
    20:00 +21°C° 0.2 mm 1 mps 688 mmHg 87%
    21:00 +21°C° 0.1 mm 1 mps 688 mmHg 89%
    22:00 +20°C° 0.1 mm 1 mps 688 mmHg 91%
    23:00 +19°C° 0.1 mm 1 mps 688 mmHg 93%
    Show more